Etusivu
METAR-TAF:

METAR-TAF

Lentoasemat :

Selma, Alabama, Yhdysvallat

Leveyspiiri: 32-20-38N, Pituuspiiri: 086-59-16W, korkeus merenpinnasta: 51 m

Tämänhetkinen sää

Tämä raportti tehtiin 20 minuuttia sitten, kello 11.55 UTC
tyyntä
Lämpötila 16°C
Kosteus 94%
Ilmanpaine 1018 hPa
Näkyvyys: 1.2 km
Pilvistä 300 ft:n korkeudessa
utua

METAR: KSEM 181155Z AUTO 00000KT 3/4SM BR OVC003 16/15 A3007 RMK AO2

Aika: 06:15 (12:15 UTC)


TAF: puuttuu

Säähavainnot ja -ennusteet yli 4000 lentoasemalta (METAR- ja TAF-raportit).

Käytössä olevat sääasemat on merkitty karttaan keltaisilla ja punaisilla pisteillä.

Aseta hiiri pisteen päälle nähdäksesi sääaseman nimen.

Klikkaa sitten nähdäksesi säähavainnot ja -ennusteet.

Kartan vaihtaminen: klikkaa mustalla rastilla varustettuja vihreitä pisteitä, niin voit zoomata sisään; viivalla varustettua vihreää pistettä, niin voit zoomata ulos tai vihreitä nuolia, niin pääset viereisille kartoille.


METAR-TAF: